Showing default

3CAT-5/A (TYVAK-0161), 46292

Orbit data source: Space-Track

3CAT-5/A (TYVAK-0161), 46292 is a payload satellite owned by UPC (ES) in SSO that was launched on Thu, 03 Sep 2020 UTC via a VEGA launch vehicle from the French Guiana (FRGUI). Payload-class satellites include a variety of spacecraft equipped with specific instruments for various scientific and technological missions. These include communications satellites like Starlink; space stations such as the ISS; scientific satellites like the Hubble; Earth observation satellites from companies like Planet Labs, Umbra, and HawkEye 360; GPS; miniature CubeSats for education and research; and military/defense satellites.

Loading next visibility...
Identifier
46292, 2020-061W
Orbit
SSO
Country
Flag of ESES / SPN
Related business
Manufacturer
UPC
Mission
Non-operational Amateur Technology
Bus & Motor
CUBESAT 6U, Unknown motor
Mass
~10 kg wet, ~10 kg dry
Launch date (UTC)
2020-09-03 (6 years ago)
Launch vehicle
VEGA
Launch site
French Guiana (FRGUI)
Object type
Payload
Rocket body
Debris
Shape & HBR
Box, Unknown HBR
Radar Cross Section
0.080 m², Medium (>0.1 m² and < 1m²)

Expand to show TLE details & history
Last TLE update: 10 hours ago

TLE from 10 hours ago
0 3CAT-5/A (TYVAK-0161)
1 46292U 20061W   26166.10511923  .00015891  00000-0  32680-3 0  9991
2 46292  97.2409 228.9995 0003146 119.2488 240.9076 15.46044441320700
Epoch: 2026-06-15T02:31Z
TLE epoch observation values (Epoch: 2026-06-15T02:31:22.301Z)
Latitude
-0.00008°
Longitude
-72.2397°
Altitude
432.483 km
Speed
7.652 km/s
True Right ascension
15h 15m 59s
True Declination
0° 00' 00"
Sunlit
Object was in full shadow at epoch
Visualization orbit readout
Latitude
Unknown
Longitude
Unknown
Altitude
Unknown
Speed
Unknown
Apparent Right ascension
Unknown
Apparent Declination
Unknown
Sunlit
N/A
Visualization observer readout
Local Sidereal Time
22:48:07
Azimuth
Unknown
Elevation
Unknown
Doppler factor
Unknown
Orbital elements
Apogee altitude
427.375 km
Perigee altitude
423.095 km
Semi-major axis
6,803.372 km
Eccentricity
0.00031
Inclination
97.2409°
RAAN
228.9995°
Arg. of periapsis
119.2488°
True anomaly
240.8761°
Mean anomaly
240.9076°
Eccentric anomaly
240.89185°
Mean motion
3.86774 °/min
Orbital period
93.08 mins
BSTAR
0.0003268
Loading maneuver chart data...
Computing Atmospheric mass density...

Documentation

Showing up to 5 results
|